"read_dt","SO2 (ppb)","flags","PMT voltage (V)","lamp voltage (V)","lamp intensity (Hz)","internal temp (C)","react chamber temp (C)","sample flow (l/min)","pres (mmHg)","SO2 bkg (ppb)","SO2 coefficient"
2016-02-11 00:00:00,1663E-3,5C000400,-0724,0836,12169,025.3,045.3,0.261,765.4,01.16,0.508
2016-02-11 00:01:00,1828E-3,5C000400,-0724,0836,12112,025.3,045.3,0.260,765.4,01.16,0.508
2016-02-11 00:02:00,1782E-3,5C000400,-0724,0836,12074,025.3,045.3,0.261,765.4,01.16,0.508
2016-02-11 00:03:00,1749E-3,5C000400,-0724,0836,11961,025.3,045.3,0.261,765.4,01.16,0.508
2016-02-11 00:04:00,1576E-3,5C000400,-0724,0836,12004,025.3,045.3,0.261,765.4,01.16,0.508
2016-02-11 00:05:00,1700E-3,5C000400,-0724,0836,12194,025.3,045.4,0.260,765.4,01.16,0.508
2016-02-11 00:06:00,1676E-3,5C000400,-0724,0835,12269,025.3,045.3,0.261,765.4,01.16,0.508
2016-02-11 00:07:00,1811E-3,5C000400,-0724,0835,12086,025.3,045.4,0.261,765.4,01.16,0.508
2016-02-11 00:08:00,1702E-3,5C000400,-0724,0835,12258,025.3,045.3,0.260,765.4,01.16,0.508
2016-02-11 00:09:00,1762E-3,5C000400,-0724,0836,11968,025.3,045.3,0.261,765.4,01.16,0.508
2016-02-11 00:10:00,1798E-3,5C000400,-0724,0835,12188,025.3,045.3,0.261,765.4,01.16,0.508
2016-02-11 00:11:00,1671E-3,5C000400,-0724,0836,11952,025.3,045.3,0.260,765.4,01.16,0.508
2016-02-11 00:12:00,1778E-3,5C000400,-0724,0836,12027,025.3,045.3,0.261,765.4,01.16,0.508
2016-02-11 00:13:00,1884E-3,5C000400,-0724,0835,12255,025.3,045.4,0.261,765.4,01.16,0.508
2016-02-11 00:14:00,1701E-3,5C000400,-0724,0835,12296,025.3,045.4,0.260,765.4,01.16,0.508
2016-02-11 00:15:00,1713E-3,5C000400,-0724,0835,12012,025.3,045.3,0.261,765.4,01.16,0.508
2016-02-11 00:16:00,1787E-3,5C000400,-0724,0835,12233,025.3,045.3,0.261,765.4,01.16,0.508
2016-02-11 00:17:00,1760E-3,5C000400,-0724,0835,12194,025.3,045.3,0.261,765.4,01.16,0.508
2016-02-11 00:18:00,1687E-3,5C000400,-0724,0835,12194,025.3,045.3,0.260,765.5,01.16,0.508
2016-02-11 00:19:00,1786E-3,5C000400,-0724,0835,12179,025.3,045.4,0.261,765.5,01.16,0.508
2016-02-11 00:20:00,1769E-3,5C000400,-0724,0836,12140,025.3,045.3,0.261,765.5,01.16,0.508
2016-02-11 00:21:00,1906E-3,5C000400,-0724,0836,12160,025.3,045.3,0.260,765.5,01.16,0.508
2016-02-11 00:22:00,1716E-3,5C000400,-0724,0835,12104,025.3,045.3,0.260,765.5,01.16,0.508
2016-02-11 00:23:00,1707E-3,5C000400,-0724,0835,12150,025.3,045.3,0.261,765.5,01.16,0.508
2016-02-11 00:24:00,1824E-3,5C000400,-0724,0836,11965,025.3,045.3,0.261,765.5,01.16,0.508
2016-02-11 00:25:00,1685E-3,5C000400,-0724,0835,12082,025.3,045.3,0.261,765.5,01.16,0.508
2016-02-11 00:26:00,1710E-3,5C000400,-0724,0835,12065,025.3,045.4,0.260,765.5,01.16,0.508
2016-02-11 00:27:00,1728E-3,5C000400,-0724,0836,12104,025.3,045.3,0.261,765.5,01.16,0.508
2016-02-11 00:28:00,1832E-3,5C000400,-0724,0835,12269,025.3,045.3,0.261,765.5,01.16,0.508
2016-02-11 00:29:00,1653E-3,5C000400,-0724,0835,11943,025.3,045.3,0.261,765.5,01.16,0.508
2016-02-11 00:30:00,1835E-3,5C000400,-0724,0835,12209,025.3,045.3,0.261,765.5,01.16,0.508
2016-02-11 00:31:00,1875E-3,5C000400,-0724,0835,12193,025.3,045.3,0.260,765.5,01.16,0.508
2016-02-11 00:32:00,1680E-3,5C000400,-0724,0836,12287,025.3,045.4,0.261,765.5,01.16,0.508
2016-02-11 00:33:00,1729E-3,5C000400,-0724,0835,12219,025.3,045.4,0.261,765.5,01.16,0.508
2016-02-11 00:34:00,1896E-3,5C000400,-0724,0835,12227,025.3,045.4,0.261,765.5,01.16,0.508
2016-02-11 00:35:00,1715E-3,5C000400,-0724,0835,12242,025.3,045.3,0.261,765.5,01.16,0.508
2016-02-11 00:36:00,1799E-3,5C000400,-0724,0836,12099,025.3,045.3,0.260,765.5,01.16,0.508
2016-02-11 00:37:00,1834E-3,5C000400,-0724,0836,12099,025.3,045.3,0.261,765.5,01.16,0.508
2016-02-11 00:38:00,1739E-3,5C000400,-0724,0835,12109,025.3,045.3,0.261,765.5,01.16,0.508
2016-02-11 00:39:00,1825E-3,5C000400,-0724,0834,12137,025.4,045.4,0.261,765.6,01.16,0.508
2016-02-11 00:40:00,1797E-3,5C000400,-0724,0835,12170,025.3,045.3,0.261,765.6,01.16,0.508
2016-02-11 00:41:00,1841E-3,5C000400,-0724,0835,12256,025.3,045.3,0.260,765.5,01.16,0.508
2016-02-11 00:42:00,1663E-3,5C000400,-0724,0835,12165,025.3,045.3,0.261,765.5,01.16,0.508
2016-02-11 00:43:00,1652E-3,5C000400,-0724,0836,12057,025.3,045.3,0.261,765.5,01.16,0.508
2016-02-11 00:44:00,1774E-3,5C000400,-0724,0835,12138,025.3,045.3,0.261,765.5,01.16,0.508
2016-02-11 00:45:00,1925E-3,5C000400,-0724,0836,12198,025.3,045.3,0.261,765.5,01.16,0.508
2016-02-11 00:46:00,1722E-3,5C000400,-0724,0835,12125,025.3,045.3,0.261,765.5,01.16,0.508
2016-02-11 00:47:00,1735E-3,5C000400,-0724,0835,12216,025.3,045.3,0.261,765.5,01.16,0.508
2016-02-11 00:48:00,1705E-3,5C000400,-0724,0835,12227,025.3,045.3,0.260,765.5,01.16,0.508
2016-02-11 00:49:00,1763E-3,5C000400,-0724,0835,12193,025.3,045.3,0.261,765.5,01.16,0.508
2016-02-11 00:50:00,1833E-3,5C000400,-0724,0835,12276,025.3,045.3,0.261,765.5,01.16,0.508
2016-02-11 00:51:00,1682E-3,5C000400,-0724,0836,12138,025.3,045.4,0.260,765.5,01.16,0.508
2016-02-11 00:52:00,1767E-3,5C000400,-0724,0837,12073,025.3,045.3,0.261,765.5,01.16,0.508
2016-02-11 00:53:00,1708E-3,5C000400,-0724,0834,12269,025.3,045.4,0.261,765.5,01.16,0.508
2016-02-11 00:54:00,1714E-3,5C000400,-0724,0835,11995,025.3,045.4,0.260,765.5,01.16,0.508
2016-02-11 00:55:00,1738E-3,5C000400,-0724,0835,12084,025.3,045.3,0.261,765.5,01.16,0.508
2016-02-11 00:56:00,1654E-3,5C000400,-0724,0835,12169,025.4,045.3,0.261,765.5,01.16,0.508
2016-02-11 00:57:00,1642E-3,5C000400,-0724,0835,12125,025.3,045.4,0.261,765.5,01.16,0.508
2016-02-11 00:58:00,1734E-3,5C000400,-0724,0836,12170,025.3,045.3,0.260,765.5,01.16,0.508
2016-02-11 00:59:00,1752E-3,5C000400,-0724,0834,12155,025.4,045.3,0.261,765.5,01.16,0.508
2016-02-11 01:00:00,1708E-3,5C000400,-0724,0834,12119,025.3,045.3,0.261,765.5,01.16,0.508
2016-02-11 01:01:00,1870E-3,5C000400,-0724,0836,12152,025.3,045.4,0.260,765.4,01.16,0.508
2016-02-11 01:02:00,1626E-3,5C000400,-0724,0836,12239,025.3,045.3,0.261,765.4,01.16,0.508
2016-02-11 01:03:00,1784E-3,5C000400,-0724,0835,12024,025.4,045.3,0.261,765.4,01.16,0.508
2016-02-11 01:04:00,1747E-3,5C000400,-0724,0836,11981,025.3,045.3,0.260,765.4,01.16,0.508
2016-02-11 01:05:00,1731E-3,5C000400,-0724,0836,12289,025.4,045.3,0.261,765.5,01.16,0.508
2016-02-11 01:06:00,1825E-3,5C000400,-0724,0835,12218,025.4,045.4,0.261,765.5,01.16,0.508
2016-02-11 01:07:00,1750E-3,5C000400,-0724,0835,12108,025.4,045.3,0.261,765.5,01.16,0.508
2016-02-11 01:08:00,1736E-3,5C000400,-0724,0835,12100,025.4,045.3,0.260,765.5,01.16,0.508
2016-02-11 01:09:00,1730E-3,5C000400,-0724,0833,12212,025.4,045.3,0.260,765.5,01.16,0.508
2016-02-11 01:10:00,1742E-3,5C000400,-0724,0836,12133,025.4,045.3,0.261,765.5,01.16,0.508
2016-02-11 01:11:00,1744E-3,5C000400,-0724,0835,12071,025.3,045.3,0.261,765.6,01.16,0.508
2016-02-11 01:12:00,1757E-3,5C000400,-0724,0835,12198,025.4,045.3,0.261,765.6,01.16,0.508
2016-02-11 01:13:00,1699E-3,5C000400,-0724,0834,12222,025.4,045.3,0.260,765.6,01.16,0.508
2016-02-11 01:14:00,1607E-3,5C000400,-0724,0836,12171,025.4,045.3,0.261,765.6,01.16,0.508
2016-02-11 01:15:00,1722E-3,5C000400,-0724,0835,12197,025.3,045.3,0.261,765.6,01.16,0.508
2016-02-11 01:16:00,1799E-3,5C000400,-0724,0835,12142,025.4,045.3,0.261,765.6,01.16,0.508
2016-02-11 01:17:00,1587E-3,5C000400,-0724,0835,12208,025.4,045.3,0.261,765.6,01.16,0.508
2016-02-11 01:18:00,1786E-3,5C000400,-0724,0835,12099,025.4,045.3,0.260,765.6,01.16,0.508
2016-02-11 01:19:00,1722E-3,5C000400,-0724,0835,12145,025.3,045.3,0.260,765.6,01.16,0.508
2016-02-11 01:20:00,1837E-3,5C000400,-0724,0835,12182,025.4,045.4,0.260,765.6,01.16,0.508
2016-02-11 01:21:00,1678E-3,5C000400,-0724,0836,12174,025.4,045.4,0.261,765.6,01.16,0.508
2016-02-11 01:22:00,1710E-3,5C000400,-0724,0835,12103,025.4,045.3,0.261,765.6,01.16,0.508
2016-02-11 01:23:00,1777E-3,5C000400,-0724,0836,12238,025.4,045.3,0.261,765.6,01.16,0.508
2016-02-11 01:24:00,1917E-3,5C000400,-0724,0835,12116,025.4,045.3,0.260,765.6,01.16,0.508
2016-02-11 01:25:00,1771E-3,5C000400,-0724,0835,12161,025.4,045.3,0.260,765.6,01.16,0.508
2016-02-11 01:26:00,1750E-3,5C000400,-0724,0835,12141,025.4,045.3,0.261,765.6,01.16,0.508
2016-02-11 01:27:00,1769E-3,5C000400,-0724,0836,12134,025.4,045.3,0.261,765.6,01.16,0.508
2016-02-11 01:28:00,1743E-3,5C000400,-0724,0835,12181,025.4,045.3,0.261,765.6,01.16,0.508
2016-02-11 01:29:00,1792E-3,5C000400,-0724,0836,12045,025.4,045.4,0.260,765.7,01.16,0.508
2016-02-11 01:30:00,1797E-3,5C000400,-0724,0835,12187,025.4,045.4,0.261,765.7,01.16,0.508
2016-02-11 01:31:00,1680E-3,5C000400,-0724,0835,12043,025.4,045.3,0.261,765.6,01.16,0.508
2016-02-11 01:32:00,1781E-3,5C000400,-0724,0835,12104,025.4,045.3,0.260,765.6,01.16,0.508
2016-02-11 01:33:00,1661E-3,5C000400,-0724,0836,12224,025.4,045.3,0.260,765.6,01.16,0.508
2016-02-11 01:34:00,1717E-3,5C000400,-0724,0835,12146,025.4,045.3,0.261,765.6,01.16,0.508
2016-02-11 01:35:00,1807E-3,5C000400,-0724,0835,12104,025.4,045.4,0.260,765.7,01.16,0.508
2016-02-11 01:36:00,1733E-3,5C000400,-0724,0835,12278,025.4,045.4,0.260,765.7,01.16,0.508
2016-02-11 01:37:00,1703E-3,5C000400,-0724,0834,12021,025.4,045.3,0.261,765.7,01.16,0.508
2016-02-11 01:38:00,1897E-3,5C000400,-0724,0835,12147,025.4,045.3,0.260,765.7,01.16,0.508
2016-02-11 01:39:00,1693E-3,5C000400,-0724,0835,12059,025.4,045.3,0.260,765.6,01.16,0.508
2016-02-11 01:40:00,1732E-3,5C000400,-0724,0835,12100,025.4,045.3,0.261,765.7,01.16,0.508
2016-02-11 01:41:00,1814E-3,5C000400,-0724,0835,12121,025.4,045.3,0.261,765.7,01.16,0.508
2016-02-11 01:42:00,1714E-3,5C000400,-0724,0836,12124,025.4,045.3,0.261,765.7,01.16,0.508
2016-02-11 01:43:00,1705E-3,5C000400,-0724,0835,12298,025.4,045.3,0.261,765.7,01.16,0.508
2016-02-11 01:44:00,1928E-3,5C000400,-0724,0835,12196,025.4,045.3,0.260,765.7,01.16,0.508
2016-02-11 01:45:00,1733E-3,5C000400,-0724,0836,12048,025.4,045.3,0.260,765.7,01.16,0.508
2016-02-11 01:46:00,1836E-3,5C000400,-0724,0835,11924,025.4,045.3,0.261,765.7,01.16,0.508
2016-02-11 01:47:00,1779E-3,5C000400,-0724,0834,12162,025.4,045.4,0.260,765.7,01.16,0.508
2016-02-11 01:48:00,1816E-3,5C000400,-0724,0836,12083,025.4,045.4,0.260,765.7,01.16,0.508
2016-02-11 01:49:00,1685E-3,5C000400,-0724,0836,12273,025.4,045.3,0.261,765.7,01.16,0.508
2016-02-11 01:50:00,1783E-3,5C000400,-0724,0835,12051,025.4,045.3,0.261,765.7,01.16,0.508
2016-02-11 01:51:00,1712E-3,5C000400,-0724,0835,12189,025.4,045.3,0.260,765.7,01.16,0.508
2016-02-11 01:52:00,1750E-3,5C000400,-0724,0835,12202,025.4,045.3,0.261,765.7,01.16,0.508
2016-02-11 01:53:00,1700E-3,5C000400,-0724,0836,12272,025.4,045.3,0.261,765.7,01.16,0.508
2016-02-11 01:54:00,1747E-3,5C000400,-0724,0835,12062,025.4,045.4,0.261,765.7,01.16,0.508
2016-02-11 01:55:00,1619E-3,5C000400,-0724,0835,12089,025.4,045.4,0.260,765.7,01.16,0.508
2016-02-11 01:56:00,1641E-3,5C000400,-0724,0835,12238,025.4,045.4,0.260,765.7,01.16,0.508
2016-02-11 01:57:00,1754E-3,5C000400,-0724,0835,12201,025.4,045.3,0.261,765.7,01.16,0.508
2016-02-11 01:58:00,1657E-3,5C000400,-0724,0835,12078,025.4,045.3,0.261,765.7,01.16,0.508
2016-02-11 01:59:00,1743E-3,5C000400,-0724,0836,12109,025.4,045.4,0.261,765.7,01.16,0.508
2016-02-11 02:00:00,1813E-3,5C000400,-0724,0836,12110,025.4,045.3,0.260,765.7,01.16,0.508
2016-02-11 02:01:00,1673E-3,5C000400,-0724,0836,12184,025.4,045.4,0.260,765.7,01.16,0.508
2016-02-11 02:02:00,1751E-3,5C000400,-0724,0835,12222,025.4,045.3,0.260,765.7,01.16,0.508
2016-02-11 02:03:00,1914E-3,5C000400,-0724,0834,12160,025.4,045.3,0.261,765.7,01.16,0.508
2016-02-11 02:04:00,1743E-3,5C000400,-0724,0835,12062,025.4,045.3,0.261,765.7,01.16,0.508
2016-02-11 02:05:00,1641E-3,5C000400,-0724,0835,12174,025.4,045.4,0.261,765.7,01.16,0.508
2016-02-11 02:06:00,1796E-3,5C000400,-0724,0836,12159,025.4,045.3,0.260,765.7,01.16,0.508
2016-02-11 02:07:00,1804E-3,5C000400,-0724,0835,12198,025.4,045.3,0.260,765.7,01.16,0.508
2016-02-11 02:08:00,1733E-3,5C000400,-0724,0836,12185,025.4,045.4,0.260,765.7,01.16,0.508
2016-02-11 02:09:00,1758E-3,5C000400,-0724,0835,12182,025.4,045.3,0.261,765.7,01.16,0.508
2016-02-11 02:10:00,1821E-3,5C000400,-0724,0835,12098,025.4,045.4,0.261,765.7,01.16,0.508
2016-02-11 02:11:00,1829E-3,5C000400,-0724,0835,12172,025.5,045.4,0.260,765.7,01.16,0.508
2016-02-11 02:12:00,1938E-3,5C000400,-0724,0835,12150,025.5,045.3,0.260,765.7,01.16,0.508
2016-02-11 02:13:00,1605E-3,5C000400,-0724,0835,12255,025.4,045.3,0.260,765.7,01.16,0.508
2016-02-11 02:14:00,1701E-3,5C000400,-0724,0836,12304,025.4,045.4,0.261,765.7,01.16,0.508
2016-02-11 02:15:00,1683E-3,5C000400,-0724,0836,12093,025.4,045.4,0.260,765.7,01.16,0.508
2016-02-11 02:16:00,1754E-3,5C000400,-0724,0835,12217,025.4,045.3,0.260,765.7,01.16,0.508
2016-02-11 02:17:00,1767E-3,5C000400,-0724,0836,12253,025.4,045.3,0.260,765.7,01.16,0.508
2016-02-11 02:18:00,1817E-3,5C000400,-0724,0836,12297,025.5,045.4,0.261,765.7,01.16,0.508
2016-02-11 02:19:00,1589E-3,5C000400,-0724,0836,12224,025.4,045.3,0.260,765.7,01.16,0.508
2016-02-11 02:20:00,1781E-3,5C000400,-0724,0834,12099,025.4,045.3,0.260,765.7,01.16,0.508
2016-02-11 02:21:00,1684E-3,5C000400,-0724,0836,12278,025.4,045.3,0.261,765.7,01.16,0.508
2016-02-11 02:22:00,1728E-3,5C000400,-0724,0835,12074,025.4,045.3,0.260,765.8,01.16,0.508
2016-02-11 02:23:00,1846E-3,5C000400,-0724,0835,12213,025.4,045.3,0.260,765.8,01.16,0.508
2016-02-11 02:24:00,1675E-3,5C000400,-0724,0835,12187,025.5,045.3,0.261,765.8,01.16,0.508
2016-02-11 02:25:00,1810E-3,5C000400,-0724,0835,12141,025.4,045.4,0.260,765.8,01.16,0.508
2016-02-11 02:26:00,1709E-3,5C000400,-0724,0835,12142,025.5,045.3,0.260,765.8,01.16,0.508
2016-02-11 02:27:00,1835E-3,5C000400,-0724,0835,12236,025.5,045.3,0.261,765.8,01.16,0.508
2016-02-11 02:28:00,1788E-3,5C000400,-0724,0836,12231,025.5,045.3,0.261,765.8,01.16,0.508
2016-02-11 02:29:00,1808E-3,5C000400,-0724,0836,12271,025.5,045.3,0.260,765.8,01.16,0.508
2016-02-11 02:30:00,1758E-3,5C000400,-0724,0836,12130,025.5,045.4,0.260,765.8,01.16,0.508
2016-02-11 02:31:00,1763E-3,5C000400,-0724,0835,12095,025.5,045.4,0.261,765.8,01.16,0.508
2016-02-11 02:32:00,1701E-3,5C000400,-0724,0835,11940,025.5,045.3,0.260,765.8,01.16,0.508
2016-02-11 02:33:00,1596E-3,5C000400,-0724,0835,12163,025.5,045.3,0.260,765.9,01.15,0.508
2016-02-11 02:34:00,1736E-3,5C000400,-0724,0835,12186,025.5,045.3,0.261,765.8,01.16,0.508
2016-02-11 02:35:00,1805E-3,5C000400,-0724,0835,11903,025.5,045.4,0.260,765.9,01.15,0.508
2016-02-11 02:36:00,1822E-3,5C000400,-0724,0836,12034,025.5,045.4,0.260,765.8,01.16,0.508
2016-02-11 02:37:00,1674E-3,5C000400,-0724,0836,12066,025.5,045.3,0.260,765.8,01.16,0.508
2016-02-11 02:38:00,1884E-3,5C000400,-0724,0835,12170,025.4,045.3,0.261,765.8,01.16,0.508
2016-02-11 02:39:00,1780E-3,5C000400,-0724,0835,11986,025.5,045.3,0.260,765.8,01.16,0.508
2016-02-11 02:40:00,1702E-3,5C000400,-0724,0836,12151,025.5,045.4,0.260,765.8,01.16,0.508
2016-02-11 02:41:00,1710E-3,5C000400,-0724,0836,12121,025.5,045.4,0.260,765.8,01.16,0.508
2016-02-11 02:42:00,1885E-3,5C000400,-0724,0835,11984,025.5,045.4,0.261,765.8,01.16,0.508
2016-02-11 02:43:00,1803E-3,5C000400,-0724,0835,12160,025.5,045.4,0.261,765.8,01.16,0.508
2016-02-11 02:44:00,1758E-3,5C000400,-0724,0835,12287,025.5,045.3,0.260,765.8,01.16,0.508
2016-02-11 02:45:00,1650E-3,5C000400,-0724,0835,12272,025.5,045.4,0.260,765.8,01.16,0.508
2016-02-11 02:46:00,1870E-3,5C000400,-0724,0835,12132,025.5,045.4,0.260,765.8,01.16,0.508
2016-02-11 02:47:00,1680E-3,5C000400,-0724,0835,12111,025.5,045.4,0.260,765.8,01.16,0.508
2016-02-11 02:48:00,1776E-3,5C000400,-0724,0835,12030,025.5,045.4,0.261,765.8,01.16,0.508
2016-02-11 02:49:00,1843E-3,5C000400,-0724,0836,12285,025.5,045.4,0.260,765.8,01.16,0.508
2016-02-11 02:50:00,1727E-3,5C000400,-0724,0836,12278,025.5,045.3,0.260,765.8,01.16,0.508
2016-02-11 02:51:00,1715E-3,5C000400,-0724,0835,12045,025.5,045.3,0.260,765.8,01.16,0.508
2016-02-11 02:52:00,1682E-3,5C000400,-0724,0835,12012,025.5,045.4,0.260,765.8,01.16,0.508
2016-02-11 02:53:00,1769E-3,5C000400,-0724,0836,12197,025.5,045.3,0.261,765.8,01.16,0.508
2016-02-11 02:54:00,1721E-3,5C000400,-0724,0835,12096,025.5,045.4,0.261,765.8,01.16,0.508
2016-02-11 02:55:00,1738E-3,5C000400,-0724,0835,12166,025.5,045.4,0.260,765.8,01.16,0.508
2016-02-11 02:56:00,1782E-3,5C000400,-0724,0836,12169,025.5,045.4,0.260,765.8,01.16,0.508
2016-02-11 02:57:00,1756E-3,5C000400,-0724,0836,12111,025.5,045.3,0.260,765.8,01.16,0.508
2016-02-11 02:58:00,1798E-3,5C000400,-0724,0835,12040,025.5,045.4,0.261,765.8,01.16,0.508
2016-02-11 02:59:00,1736E-3,5C000400,-0724,0835,12110,025.5,045.4,0.260,765.8,01.16,0.508
2016-02-11 03:00:00,1762E-3,5C000400,-0724,0836,12102,025.5,045.4,0.260,765.8,01.16,0.508
2016-02-11 03:01:00,1757E-3,5C000400,-0724,0836,12182,025.5,045.4,0.260,765.8,01.16,0.508
2016-02-11 03:02:00,1783E-3,5C000400,-0724,0835,12154,025.5,045.4,0.261,765.8,01.16,0.508
2016-02-11 03:03:00,1770E-3,5C000400,-0724,0836,12273,025.5,045.4,0.260,765.8,01.16,0.508
2016-02-11 03:04:00,1687E-3,5C000400,-0724,0836,12204,025.5,045.4,0.260,765.8,01.16,0.508
2016-02-11 03:05:00,1698E-3,5C000400,-0724,0834,12263,025.5,045.3,0.261,765.8,01.16,0.508
2016-02-11 03:06:00,1814E-3,5C000400,-0724,0835,12129,025.5,045.3,0.260,765.8,01.16,0.508
2016-02-11 03:07:00,1837E-3,5C000400,-0724,0835,12107,025.5,045.3,0.260,765.9,01.15,0.508
2016-02-11 03:08:00,1747E-3,5C000400,-0724,0836,11988,025.5,045.4,0.261,765.9,01.15,0.508
2016-02-11 03:09:00,1771E-3,5C000400,-0724,0835,12246,025.5,045.4,0.260,765.9,01.15,0.508
2016-02-11 03:10:00,1741E-3,5C000400,-0724,0835,12195,025.5,045.3,0.260,765.9,01.15,0.508
2016-02-11 03:11:00,1753E-3,5C000400,-0724,0835,12100,025.5,045.3,0.260,765.9,01.15,0.508
2016-02-11 03:12:00,1617E-3,5C000400,-0724,0835,12248,025.6,045.4,0.260,765.8,01.16,0.508
2016-02-11 03:13:00,1727E-3,5C000400,-0724,0835,11959,025.5,045.4,0.260,765.8,01.16,0.508
2016-02-11 03:14:00,1835E-3,5C000400,-0724,0835,12154,025.6,045.4,0.260,765.8,01.16,0.508
2016-02-11 03:15:00,1786E-3,5C000400,-0724,0836,12259,025.5,045.3,0.260,765.9,01.15,0.508
2016-02-11 03:16:00,1762E-3,5C000400,-0724,0835,12094,025.5,045.3,0.260,765.9,01.15,0.508
2016-02-11 03:17:00,1874E-3,5C000400,-0724,0835,12037,025.5,045.3,0.260,765.9,01.15,0.508
2016-02-11 03:18:00,1783E-3,5C000400,-0724,0834,12203,025.5,045.3,0.260,765.9,01.15,0.508
2016-02-11 03:19:00,1837E-3,5C000400,-0724,0835,12086,025.6,045.3,0.261,765.9,01.15,0.508
2016-02-11 03:20:00,1714E-3,5C000400,-0724,0835,12174,025.5,045.3,0.260,765.9,01.15,0.508
2016-02-11 03:21:00,1794E-3,5C000400,-0724,0835,12237,025.5,045.4,0.260,765.9,01.15,0.508
2016-02-11 03:22:00,1732E-3,5C000400,-0724,0835,12141,025.5,045.4,0.260,765.9,01.15,0.508
2016-02-11 03:23:00,1844E-3,5C000400,-0724,0835,12264,025.5,045.3,0.261,765.9,01.15,0.508
2016-02-11 03:24:00,1719E-3,5C000400,-0724,0835,12188,025.5,045.3,0.260,766.0,01.15,0.508
2016-02-11 03:25:00,1742E-3,5C000400,-0724,0834,12210,025.5,045.4,0.260,765.9,01.15,0.508
2016-02-11 03:26:00,1736E-3,5C000400,-0724,0835,12225,025.5,045.4,0.260,765.9,01.15,0.508
2016-02-11 03:27:00,1763E-3,5C000400,-0724,0835,12144,025.6,045.4,0.260,766.0,01.15,0.508
2016-02-11 03:28:00,1741E-3,5C000400,-0724,0835,12105,025.5,045.4,0.261,765.9,01.15,0.508
2016-02-11 03:29:00,1781E-3,5C000400,-0724,0835,12130,025.5,045.4,0.260,765.9,01.15,0.508
2016-02-11 03:30:00,1749E-3,5C000400,-0724,0835,12217,025.5,045.4,0.260,766.0,01.15,0.508
2016-02-11 03:31:00,1782E-3,5C000400,-0724,0836,12186,025.5,045.3,0.260,766.0,01.15,0.508
2016-02-11 03:32:00,1815E-3,5C000400,-0724,0835,12127,025.6,045.4,0.260,766.0,01.15,0.508
2016-02-11 03:33:00,1647E-3,5C000400,-0724,0836,12090,025.6,045.3,0.260,766.0,01.15,0.508
2016-02-11 03:34:00,1751E-3,5C000400,-0724,0835,12256,025.6,045.4,0.260,766.0,01.15,0.508
2016-02-11 03:35:00,1744E-3,5C000400,-0724,0836,12235,025.6,045.4,0.260,766.0,01.15,0.508
2016-02-11 03:36:00,1867E-3,5C000400,-0724,0836,12213,025.6,045.3,0.260,766.0,01.15,0.508
2016-02-11 03:37:00,1791E-3,5C000400,-0724,0835,12223,025.6,045.3,0.260,766.0,01.15,0.508
2016-02-11 03:38:00,1806E-3,5C000400,-0724,0836,11944,025.6,045.3,0.260,766.0,01.15,0.508
2016-02-11 03:39:00,1820E-3,5C000400,-0724,0836,12156,025.6,045.4,0.260,766.0,01.15,0.508
2016-02-11 03:40:00,1895E-3,5C000400,-0724,0836,12107,025.6,045.4,0.261,766.0,01.15,0.508
2016-02-11 03:41:00,1732E-3,5C000400,-0724,0836,12048,025.6,045.4,0.260,766.1,01.15,0.508
2016-02-11 03:42:00,1756E-3,5C000400,-0724,0836,12096,025.6,045.3,0.260,766.0,01.15,0.508
2016-02-11 03:43:00,1831E-3,5C000400,-0724,0836,12146,025.6,045.3,0.261,766.0,01.15,0.508
2016-02-11 03:44:00,1690E-3,5C000400,-0724,0836,12228,025.6,045.3,0.261,766.0,01.15,0.508
2016-02-11 03:45:00,1712E-3,5C000400,-0724,0836,12188,025.6,045.3,0.260,766.1,01.15,0.508
2016-02-11 03:46:00,1805E-3,5C000400,-0724,0835,12082,025.6,045.4,0.260,766.0,01.15,0.508
2016-02-11 03:47:00,1739E-3,5C000400,-0724,0836,12237,025.6,045.3,0.260,766.1,01.15,0.508
2016-02-11 03:48:00,1746E-3,5C000400,-0724,0836,12103,025.6,045.3,0.260,766.1,01.15,0.508
2016-02-11 03:49:00,1745E-3,5C000400,-0724,0837,12267,025.6,045.4,0.260,766.1,01.15,0.508
2016-02-11 03:50:00,1748E-3,5C000400,-0724,0836,12156,025.6,045.3,0.261,766.1,01.15,0.508
2016-02-11 03:51:00,1770E-3,5C000400,-0724,0834,12138,025.6,045.4,0.260,766.1,01.15,0.508
2016-02-11 03:52:00,1805E-3,5C000400,-0724,0835,12187,025.6,045.4,0.260,766.1,01.15,0.508
2016-02-11 03:53:00,1667E-3,5C000400,-0724,0835,12180,025.6,045.3,0.260,766.1,01.15,0.508
2016-02-11 03:54:00,1720E-3,5C000400,-0724,0835,12191,025.6,045.3,0.260,766.1,01.15,0.508
2016-02-11 03:55:00,1715E-3,5C000400,-0724,0835,12082,025.6,045.3,0.260,766.1,01.15,0.508
2016-02-11 03:56:00,1752E-3,5C000400,-0724,0836,12145,025.6,045.3,0.260,766.1,01.15,0.508
2016-02-11 03:57:00,1783E-3,5C000400,-0724,0834,12139,025.6,045.4,0.260,766.1,01.15,0.508
2016-02-11 03:58:00,1821E-3,5C000400,-0724,0836,12140,025.6,045.3,0.260,766.1,01.15,0.508
2016-02-11 03:59:00,1719E-3,5C000400,-0724,0835,12211,025.6,045.4,0.260,766.1,01.15,0.508
2016-02-11 04:00:00,1663E-3,5C000400,-0724,0835,12178,025.6,045.4,0.260,766.1,01.15,0.508
2016-02-11 04:01:00,1797E-3,5C000400,-0724,0835,11980,025.6,045.3,0.260,766.1,01.15,0.508
2016-02-11 04:02:00,1811E-3,5C000400,-0724,0835,11996,025.6,045.3,0.260,766.1,01.15,0.508
2016-02-11 04:03:00,1846E-3,5C000400,-0724,0834,12201,025.6,045.4,0.260,766.1,01.15,0.508
2016-02-11 04:04:00,1802E-3,5C000400,-0724,0834,12116,025.6,045.3,0.260,766.1,01.15,0.508
2016-02-11 04:05:00,1791E-3,5C000400,-0724,0834,12086,025.6,045.4,0.260,766.1,01.15,0.508
2016-02-11 04:06:00,1707E-3,5C000400,-0724,0834,12258,025.6,045.4,0.260,766.1,01.15,0.508
2016-02-11 04:07:00,1818E-3,5C000400,-0724,0835,11982,025.6,045.3,0.260,766.1,01.15,0.508
2016-02-11 04:08:00,1756E-3,5C000400,-0724,0835,12213,025.6,045.4,0.260,766.1,01.15,0.508
2016-02-11 04:09:00,1820E-3,5C000400,-0724,0835,12014,025.6,045.3,0.260,766.1,01.15,0.508
2016-02-11 04:10:00,1686E-3,5C000400,-0724,0835,12275,025.6,045.4,0.260,766.1,01.15,0.508
2016-02-11 04:11:00,1654E-3,5C000400,-0724,0835,12055,025.7,045.4,0.260,766.1,01.15,0.508
2016-02-11 04:12:00,1749E-3,5C000400,-0724,0836,12121,025.6,045.4,0.260,766.1,01.15,0.508
2016-02-11 04:13:00,1639E-3,5C000400,-0724,0835,11975,025.7,045.4,0.260,766.1,01.15,0.508
2016-02-11 04:14:00,1830E-3,5C000400,-0724,0836,12179,025.7,045.4,0.260,766.1,01.15,0.508
2016-02-11 04:15:00,1726E-3,5C000400,-0724,0834,12117,025.7,045.4,0.260,766.1,01.15,0.508
2016-02-11 04:16:00,1729E-3,5C000400,-0724,0836,12153,025.6,045.4,0.260,766.1,01.15,0.508
2016-02-11 04:17:00,1714E-3,5C000400,-0724,0835,12218,025.6,045.3,0.260,766.1,01.15,0.508
2016-02-11 04:18:00,1768E-3,5C000400,-0724,0836,12138,025.7,045.3,0.260,766.1,01.15,0.508
2016-02-11 04:19:00,1690E-3,5C000400,-0724,0834,12061,025.7,045.3,0.260,766.1,01.15,0.508
2016-02-11 04:20:00,1715E-3,5C000400,-0724,0835,12050,025.7,045.4,0.260,766.1,01.15,0.508